Location: Mahannah Oil Field
(37.4664°N, 96.6003°W)
Time: 15:40:53
(UTC+00:00)

Vanguard 2 Rocket - Pass Details

Date: 21 January 2021
Orbit: 554 x 3325 km, 32.9° (Epoch: 06 March)

Event Time Altitude Azimuth Distance (km) Brightness Sun altitude
Rises 18:09:05 0° 189° (S) 7,195 12.5 32.4°
Reaches altitude 10° 18:18:52 10° 166° (SSE) 5,757 12.4 32.6°
Maximum altitude 18:24:36 12° 146° (SE) 5,161 11.8 32.7°
Drops below altitude 10° 18:29:38 10° 125° (SE) 4,958 11.2 32.8°
Sets 18:36:14 0° 99° (E) 5,309 10.9 32.8°
